[[{"header":{"parameterUnit":"m.s-1","parameterCategory":1,"la1":30.2991,"la2":30.254,"lo1":-89.0895,"lo2":-89.0444,"dx":0.0017,"dy":0.0017,"nx":28,"ny":28,"refTime":"2023-01-21T15:00:00:Z","depth":0,"parameterNumber":2,"parameterNumberName":"U-component_of_WINDS"},"data":[0,0,0,0,0,0,0,0,0,0,0,0,0,0,0,0,0,0,0,0,0,0,0,0,0,0,0,0,0,0,0,0,0,0,0,0,0,0,0,0,0,0,0,0,0,0,0,0,0,0,0,0,0,0,0,0,0,0,5.153,5.1532,0,5.1693,5.1695,5.1697,5.1663,5.166,5.1657,5.1655,5.1824,5.1831,5.1838,0,0,0,0,0,0,0,0,0,0,0,0,0,5.1191,5.1197,5.153,5.1532,5.1534,5.1693,5.1695,5.1698,5.1664,5.166,5.1657,5.1653,5.1822,5.183,5.1839,0,0,0,0,0,0,0,0,0,0,0,0,0,5.1345,5.1199,5.1529,5.1536,5.1538,5.1693,5.1695,5.1698,5.1665,5.166,5.1656,5.1651,5.1819,5.1829,5.184,5.1998,0,0,5.1874,5.1878,0,0,0,0,0,0,0,0,5.1336,5.1357,5.1533,5.1536,5.1539,5.1653,5.1638,5.1799,5.1666,5.1617,5.1654,5.1649,5.1771,5.1786,5.1826,5.2006,5.2013,5.1875,5.1881,5.1886,5.1889,0,0,0,0,0,0,0,5.1325,5.135,5.1595,5.1536,5.1539,5.1532,5.1549,5.1668,5.1717,5.1621,5.1619,5.1638,5.1772,5.1816,5.183,5.2016,5.1874,5.1884,5.1891,5.1895,5.2335,5.2339,0,0,0,0,0,0,5.1312,5.1341,5.1589,5.1599,5.1424,5.1542,5.1561,5.1621,5.1716,5.1726,5.1642,5.1636,5.1799,5.1817,5.1836,5.2027,5.1886,5.1896,5.1903,5.233,5.2336,5.2341,0,0,0,0,0,0,5.1305,5.1334,5.1583,5.147,5.1501,5.1552,5.1621,5.1627,5.1671,5.1732,5.1741,5.1678,5.1796,5.182,5.1958,5.2033,5.1901,5.1911,5.2324,5.2331,5.2339,5.2412,0,0,0,0,0,0,5.1295,5.1332,5.1392,5.1472,5.1507,5.1702,5.1625,5.1633,5.169,5.1683,5.1768,5.1778,5.1795,5.1942,5.1969,5.2046,5.192,5.2317,5.2327,5.2336,5.2403,5.2421,5.2436,0,0,0,0,0,5.1283,5.1407,5.1395,5.1425,5.1583,5.1706,5.1727,5.1743,5.1696,5.1757,5.1796,5.1775,5.202,5.1956,5.1987,5.2068,5.2312,5.2324,5.2335,5.2395,5.2417,5.2436,0,0,0,0,0,0,5.1335,5.1417,5.1405,5.1558,5.1625,5.17,5.1778,5.1766,5.1849,5.184,5.1857,5.1876,5.2017,5.2056,5.1983,5.2226,5.216,5.2178,5.2195,5.2217,5.2233,5.2221,5.1929,0,0,0,0,0,5.1364,5.1457,5.1523,5.1652,5.1686,5.1726,5.1781,5.1787,5.1858,5.1887,5.1936,5.2006,5.2099,5.216,5.2249,5.2408,5.2427,5.2479,5.2496,5.2509,5.2525,5.2613,5.2637,5.2379,5.2379,5.2379,0,0,5.1426,5.1482,5.1539,5.1664,5.1716,5.1813,5.1751,5.1855,5.1926,5.1903,5.2036,5.2075,5.2154,5.2304,5.2372,5.2341,5.26,5.2524,5.2534,5.2543,5.2627,5.2651,5.2673,5.2387,5.2385,5.2384,0,0,5.1586,5.1638,5.175,5.1805,5.1885,5.1912,5.1939,5.2016,5.2041,5.2174,5.2159,5.2245,5.2404,5.2461,5.2511,5.2695,5.2678,5.2723,5.2811,5.2896,5.2917,5.2935,5.3,5.3024,5.2738,5.2739,5.2739,0,5.1652,5.1796,5.181,5.1916,5.1971,5.1954,5.2068,5.2121,5.2227,5.2266,5.2229,5.2429,5.2482,5.2644,5.2689,5.273,5.2762,5.2714,5.2912,5.2931,5.2948,5.3011,5.3035,5.2743,5.2743,5.2742,5.2742,0,5.1873,5.1973,5.2054,5.2157,5.2221,5.2331,5.2363,5.2427,5.2428,5.2458,5.2595,5.2657,5.2759,5.2798,5.28,5.2962,5.294,5.2908,5.2842,5.2977,5.3036,5.3061,5.275,5.2749,5.2747,5.2746,0,0,5.2071,5.218,5.2209,5.2256,5.2344,5.2422,5.2531,5.263,5.2684,5.2758,5.2851,5.2987,5.2958,5.3014,5.3023,5.3099,5.324,5.3057,5.3059,5.3089,5.3422,5.3446,5.3473,5.323,5.3234,5.3238,5.3416,0,5.224,5.2432,5.2448,5.2621,5.2714,5.2699,5.2794,5.2859,5.2891,5.2974,5.3009,5.3105,5.3059,5.3094,5.3167,5.3207,5.3307,5.3195,5.3317,5.3321,5.3297,5.3504,5.353,5.3694,5.3439,5.3443,5.3446,0,5.2463,5.2543,5.2725,5.28,5.284,5.2925,5.3017,5.3097,5.317,5.3188,5.3252,5.3251,5.3364,5.3294,5.3451,5.3374,5.3425,5.3452,5.3459,5.3471,5.3392,5.3522,5.3747,5.3772,5.3482,5.3479,5.3477,0,5.2589,5.2742,5.2871,5.2911,5.3002,5.3063,5.3104,5.3173,5.3231,5.3312,5.335,5.3443,5.3494,5.3566,5.3591,5.3537,5.3747,5.3679,5.3765,5.3765,5.381,5.3807,5.4047,5.3843,5.3843,5.3842,5.3842,0,5.2776,5.2888,5.2929,5.3008,5.3134,5.3152,5.3276,5.3314,5.3375,5.3462,5.3455,5.3537,5.3564,5.3651,5.3671,5.3798,5.3822,5.3839,5.3843,5.384,5.3838,5.3874,5.3863,5.3849,5.3847,5.3846,5.3845,0,5.2938,5.297,5.311,5.3184,5.3206,5.3295,5.336,5.3437,5.3466,5.3577,5.3604,5.3651,5.3753,5.3784,5.3908,5.3921,5.407,5.4064,5.4045,5.4045,5.413,5.4122,5.4402,5.4439,5.4211,5.4213,5.4215,0,5.3056,5.3142,5.3225,5.3283,5.3326,5.3419,5.3478,5.3499,5.3562,5.3652,5.3718,5.3819,5.3901,5.4065,5.411,5.4205,5.4201,5.4292,5.4215,5.4209,5.4203,5.4197,5.4206,5.4307,5.4309,5.4311,5.4313,0,5.3261,5.3272,5.3357,5.3449,5.352,5.3593,5.3664,5.3711,5.3743,5.3813,5.3917,5.3981,5.4106,5.4206,5.4302,5.4345,5.4335,5.4337,5.4362,5.436,5.4345,5.4354,5.4085,5.433,5.4328,5.4327,5.4326,5.4326,5.3405,5.348,5.3551,5.3647,5.3702,5.3768,5.3844,5.3883,5.397,5.4073,5.4081,5.4193,5.4265,5.4393,5.4441,5.453,5.4503,5.454,5.4549,5.4558,5.4565,5.4331,5.4547,5.4547,5.4546,5.4546,5.4546,0,5.3609,5.3654,5.3742,5.384,5.3916,5.3899,5.3976,5.404,5.4139,5.4207,5.4287,5.4407,5.4504,5.4558,5.4655,5.4716,5.4714,5.4741,5.4737,5.4747,5.4582,5.4551,5.4741,5.4741,5.4741,5.4741,5.4741,5.4741,5.3725,5.3852,5.3872,5.4027,5.4071,5.418,5.4226,5.4287,5.4341,5.4475,5.4556,5.459,5.4652,5.4754,5.4843,5.4856,5.4893,5.4923,5.4934,5.4779,5.4759,5.474,5.471,5.4931,5.4931,5.5091,5.5092,5.5093]},{"header":{"parameterUnit":"m.s-1","parameterCategory":1,"la1":30.2991,"la2":30.254,"lo1":-89.0895,"lo2":-89.0444,"dx":0.0017,"dy":0.0017,"nx":28,"ny":28,"refTime":"2023-01-21T15:00:00:Z","depth":0,"parameterNumber":3,"parameterNumberName":"V-component_of_WINDS"},"data":[0,0,0,0,0,0,0,0,0,0,0,0,0,0,0,0,0,0,0,0,0,0,0,0,0,0,0,0,0,0,0,0,0,0,0,0,0,0,0,0,0,0,0,0,0,0,0,0,0,0,0,0,0,0,0,0,0,0,-3.8568,-3.8569,0,-3.8693,-3.8694,-3.8696,-3.8679,-3.8677,-3.8675,-3.8673,-3.8802,-3.8807,-3.8812,0,0,0,0,0,0,0,0,0,0,0,0,0,-3.8314,-3.8319,-3.8568,-3.8569,-3.8571,-3.8693,-3.8695,-3.8696,-3.868,-3.8677,-3.8675,-3.8672,-3.88,-3.8806,-3.8813,0,0,0,0,0,0,0,0,0,0,0,0,0,-3.843,-3.832,-3.8567,-3.8577,-3.8579,-3.8692,-3.8695,-3.8697,-3.868,-3.8677,-3.8674,-3.8671,-3.8798,-3.8806,-3.8813,-3.8925,0,0,-3.8838,-3.8841,0,0,0,0,0,0,0,0,-3.8424,-3.844,-3.8574,-3.8577,-3.8579,-3.8667,-3.8652,-3.8773,-3.8681,-3.8642,-3.8673,-3.867,-3.8759,-3.877,-3.8801,-3.8931,-3.8936,-3.8839,-3.8843,-3.8847,-3.8849,0,0,0,0,0,0,0,-3.8416,-3.8434,-3.8617,-3.8576,-3.8579,-3.8575,-3.8588,-3.8675,-3.8717,-3.8645,-3.8644,-3.8659,-3.876,-3.8793,-3.8804,-3.8938,-3.8838,-3.8846,-3.885,-3.8854,-3.9165,-3.9168,0,0,0,0,0,0,-3.8405,-3.8428,-3.8613,-3.8621,-3.8492,-3.8582,-3.8597,-3.8642,-3.8716,-3.8724,-3.8662,-3.8658,-3.8781,-3.8794,-3.8808,-3.8943,-3.8847,-3.8854,-3.8859,-3.9162,-3.9166,-3.917,0,0,0,0,0,0,-3.84,-3.8422,-3.8608,-3.8524,-3.8548,-3.859,-3.8641,-3.8646,-3.8679,-3.8728,-3.8735,-3.8688,-3.8779,-3.8797,-3.8896,-3.8947,-3.8858,-3.8865,-3.9157,-3.9163,-3.9168,-3.9214,0,0,0,0,0,0,-3.8392,-3.842,-3.8463,-3.8525,-3.8552,-3.8694,-3.8644,-3.8651,-3.8693,-3.8689,-3.8754,-3.8762,-3.8778,-3.8884,-3.8904,-3.8957,-3.8871,-3.9153,-3.916,-3.9166,-3.9208,-3.922,-3.923,0,0,0,0,0,-3.8383,-3.8471,-3.8465,-3.8488,-3.8607,-3.8697,-3.8712,-3.8729,-3.8697,-3.8741,-3.8772,-3.876,-3.8938,-3.8894,-3.8916,-3.8972,-3.915,-3.9158,-3.9166,-3.9203,-3.9217,-3.923,0,0,0,0,0,0,-3.8414,-3.8479,-3.8474,-3.8584,-3.8635,-3.8694,-3.8749,-3.8744,-3.8805,-3.8799,-3.8817,-3.8832,-3.8932,-3.8962,-3.8912,-3.9083,-3.904,-3.9052,-3.906,-3.9075,-3.9086,-3.9076,-3.8878,0,0,0,0,0,-3.8433,-3.8501,-3.8555,-3.8647,-3.8673,-3.8707,-3.8747,-3.8755,-3.8809,-3.883,-3.8869,-3.8921,-3.8989,-3.9033,-3.9099,-3.9212,-3.9225,-3.9261,-3.9272,-3.9281,-3.9292,-3.9354,-3.937,-3.9195,-3.9195,-3.9195,0,0,-3.8474,-3.8518,-3.856,-3.8654,-3.8695,-3.8765,-3.8725,-3.8801,-3.8853,-3.8842,-3.8938,-3.8968,-3.9027,-3.9134,-3.9183,-3.9162,-3.9343,-3.9291,-3.9298,-3.9304,-3.9363,-3.938,-3.9395,-3.92,-3.92,-3.9199,0,0,-3.8585,-3.8625,-3.8706,-3.8747,-3.8809,-3.8831,-3.885,-3.8911,-3.893,-3.9026,-3.9019,-3.9081,-3.9198,-3.9241,-3.9278,-3.9403,-3.9395,-3.9424,-3.9483,-3.9543,-3.9556,-3.9569,-3.9614,-3.9629,-3.9435,-3.9435,-3.9435,0,-3.8628,-3.8733,-3.8748,-3.8825,-3.8866,-3.8859,-3.8941,-3.898,-3.9061,-3.9089,-3.9065,-3.921,-3.925,-3.9366,-3.9397,-3.9427,-3.945,-3.9417,-3.9553,-3.9566,-3.9577,-3.962,-3.9637,-3.9438,-3.9438,-3.9437,-3.9437,0,-3.8783,-3.8856,-3.8914,-3.8991,-3.9039,-3.9118,-3.9145,-3.9192,-3.9195,-3.922,-3.9317,-3.9365,-3.9439,-3.9467,-3.9472,-3.9584,-3.9569,-3.9549,-3.9505,-3.9597,-3.9638,-3.9654,-3.9442,-3.9441,-3.944,-3.944,0,0,-3.8917,-3.9001,-3.9022,-3.9057,-3.9124,-3.9181,-3.9259,-3.9332,-3.9371,-3.9427,-3.9493,-3.9591,-3.9572,-3.9614,-3.9623,-3.9676,-3.9773,-3.9649,-3.9651,-3.9671,-3.9899,-3.9914,-3.9933,-3.9767,-3.977,-3.9773,-3.9894,0,-3.9034,-3.9173,-3.9188,-3.9312,-3.938,-3.9373,-3.9441,-3.949,-3.9515,-3.9575,-3.9602,-3.9672,-3.9642,-3.9667,-3.9719,-3.975,-3.9819,-3.9741,-3.9829,-3.9832,-3.9814,-3.9954,-3.9971,-4.0083,-3.991,-3.9913,-3.9915,0,-3.919,-3.9249,-3.9379,-3.9437,-3.9466,-3.9527,-3.9594,-3.9652,-3.9707,-3.9721,-3.9768,-3.977,-3.9851,-3.9803,-3.9915,-3.9862,-3.9898,-3.9919,-3.9923,-3.9933,-3.9879,-3.9967,-4.0119,-4.0136,-3.994,-3.9938,-3.9936,0,-3.9274,-3.9387,-3.9479,-3.9509,-3.9578,-3.9621,-3.9652,-3.9704,-3.9746,-3.9805,-3.9833,-3.99,-3.9938,-3.999,-4.001,-3.9974,-4.012,-4.0075,-4.0134,-4.0134,-4.0166,-4.0164,-4.0326,-4.0189,-4.0189,-4.0188,-4.0188,0,-3.9404,-3.9484,-3.9518,-3.9575,-3.9664,-3.9681,-3.9769,-3.9798,-3.9844,-3.9906,-3.9904,-3.9963,-3.9986,-4.0048,-4.0064,-4.0154,-4.017,-4.0184,-4.0187,-4.0185,-4.0183,-4.0209,-4.0202,-4.0193,-4.0192,-4.0191,-4.019,0,-3.9514,-3.954,-3.964,-3.9697,-3.9714,-3.9777,-3.9826,-3.9881,-3.9904,-3.9983,-4.0002,-4.0039,-4.0112,-4.0137,-4.0226,-4.0236,-4.0341,-4.0337,-4.0322,-4.0323,-4.0381,-4.0376,-4.0567,-4.0592,-4.0438,-4.0439,-4.0441,0,-3.9595,-3.9656,-3.972,-3.9761,-3.9794,-3.9861,-3.9904,-3.9922,-3.9967,-4.0034,-4.0081,-4.0153,-4.0212,-4.0329,-4.0363,-4.0431,-4.0429,-4.0491,-4.0439,-4.0434,-4.043,-4.0427,-4.0433,-4.0501,-4.0503,-4.0504,-4.0505,0,-3.9736,-3.9746,-3.9808,-3.9875,-3.9926,-3.998,-4.0032,-4.0066,-4.0092,-4.0142,-4.0217,-4.0262,-4.0352,-4.0424,-4.0493,-4.0525,-4.052,-4.0521,-4.0539,-4.0537,-4.0525,-4.0532,-4.0349,-4.0517,-4.0516,-4.0515,-4.0514,-4.0514,-3.9835,-3.9888,-3.9941,-4.0011,-4.0051,-4.01,-4.0154,-4.0184,-4.0246,-4.0321,-4.0328,-4.0408,-4.0461,-4.0553,-4.0587,-4.065,-4.0633,-4.0658,-4.0665,-4.0671,-4.0675,-4.0515,-4.0663,-4.0663,-4.0662,-4.0662,-4.0662,0,-3.9976,-4.0009,-4.0073,-4.0145,-4.0199,-4.0189,-4.0246,-4.0292,-4.0362,-4.0412,-4.047,-4.0555,-4.0624,-4.0664,-4.0734,-4.0776,-4.0776,-4.0794,-4.0791,-4.0798,-4.0687,-4.0665,-4.0793,-4.0793,-4.0793,-4.0793,-4.0793,-4.0793,-4.0056,-4.0147,-4.0162,-4.0273,-4.0306,-4.0385,-4.0418,-4.0462,-4.0501,-4.0597,-4.0654,-4.068,-4.0725,-4.0798,-4.0861,-4.0871,-4.0897,-4.0917,-4.0925,-4.082,-4.0806,-4.0793,-4.0773,-4.0922,-4.0922,-4.1031,-4.1032,-4.1033]}]]